Theta_e
310 311 315 315 317 323 326 325 314 323 325 321 314 313 315 316 317 318 318 318 318 319 318 319 319 319 317 316 317 317 315 312 312 316 313 314 315 315 314 315 318 312 312 315
310 310 314 315 316 322 321 320 321 322 324 312 307 316 317 318 317 317 317 318 317 317 318 318 318 318 317 316 316 316 314 311 311 312 312 312 316 315 314 312 308 315 313 312
310 310 312 315 316 320 321 319 311 321 321 318 314 316 317 318 318 318 318 317 317 317 316 315 317 318 317 317 317 316 315 312 311 313 312 313 315 315 314 313 309 313 314 314
309 309 311 314 315 318 320 318 315 318 311 316 317 317 318 318 318 317 317 317 316 317 315 316 319 317 316 316 316 315 312 313 313 313 313 313 314 315 315 315 313 315 314 313
309 309 311 314 315 318 320 319 318 317 316 318 315 312 317 319 316 317 317 316 316 316 316 316 318 317 316 316 315 314 312 311 313 313 313 314 315 314 313 313 313 312 311 311
308 309 311 314 315 317 318 320 320 317 313 312 309 310 316 317 317 317 317 316 314 312 317 318 318 317 317 316 314 311 312 307 310 310 310 309 308 310 312 312 311 311 310 310
309 310 312 315 315 318 316 318 317 315 305 306 310 317 316 316 316 316 316 316 314 316 318 318 316 314 311 310 310 314 306 305 305 311 311 313 311 310 310 310 310 309 311 312
310 311 313 315 316 317 317 317 317 315 303 309 317 317 317 316 316 317 316 317 316 318 317 305 305 305 303 304 311 311 307 305 309 313 312 310 311 310 312 312 311 311 312 311
312 313 314 315 316 316 316 316 316 315 315 309 317 316 316 308 308 312 317 317 317 317 307 302 304 305 306 310 310 308 305 302 303 309 313 313 308 307 312 312 312 311 312 310
313 314 315 315 315 315 316 316 316 316 316 317 317 316 311 316 314 305 314 317 316 315 306 306 301 305 308 309 304 304 304 306 307 307 311 306 305 308 309 308 308 312 310 309
314 315 315 315 314 314 314 315 316 316 316 316 317 317 318 317 317 307 315 313 311 306 305 302 302 297 304 307 307 306 306 305 304 304 307 309 308 310 310 309 310 309 309 310
314 315 315 315 315 315 316 316 316 316 316 316 316 316 317 317 317 317 315 315 313 314 306 305 301 306 301 303 312 307 311 308 306 306 308 308 310 310 310 309 309 309 309 307
314 315 315 315 315 316 316 316 316 316 315 315 315 315 316 316 317 317 318 317 317 315 314 308 304 309 303 308 310 310 310 310 307 309 309 309 310 311 310 310 310 309 306 303
314 314 314 315 315 315 315 315 315 315 315 313 314 314 314 313 313 314 314 314 315 316 315 313 304 307 309 308 311 310 311 310 310 310 311 311 311 310 310 310 308 304 303 301
313 313 313 314 315 315 315 315 315 315 315 311 313 313 313 313 313 313 313 313 313 314 314 308 306 310 308 307 305 307 311 310 310 311 312 311 310 310 308 307 303 301 299 297
313 313 313 314 315 315 314 314 313 313 314 314 306 313 312 312 312 313 314 314 314 313 313 312 312 313 311 307 309 311 312 312 312 311 311 311 310 306 302 300 299 299 299 298
313 313 313 314 314 314 313 312 312 312 313 312 311 309 310 310 311 311 312 312 312 312 312 312 312 311 312 304 312 312 312 312 311 311 310 308 303 300 299 298 299 297 296 298
312 312 313 313 312 312 312 312 312 312 312 311 305 305 308 307 308 309 309 310 310 311 311 310 308 310 310 308 311 311 310 309 308 307 306 304 300 297 295 293 293 293 292 293
311 311 311 311 310 309 309 311 311 311 311 311 304 305 308 307 307 308 307 307 304 306 305 305 307 304 308 308 308 307 307 306 305 302 299 297 296 294 294 294 293 292 291 292
308 309 308 306 307 306 306 307 308 308 306 305 302 303 304 307 307 306 305 304 302 305 303 304 303 305 305 301 303 302 301 301 300 299 300 296 295 295 294 294 292 292 293 294
307 306 304 302 304 305 306 304 303 302 301 300 300 301 303 304 304 303 304 301 301 302 297 303 299 298 298 298 299 298 298 298 297 297 297 296 294 294 294 294 291 292 293 294
305 305 303 303 303 303 301 301 299 299 300 299 299 301 303 303 303 303 299 301 299 296 296 300 300 297 298 299 299 298 297 295 295 294 294 292 292 294 294 293 292 291 293 294
304 303 302 300 299 298 296 300 299 299 298 300 301 300 301 301 301 299 297 299 298 297 298 297 296 299 298 297 296 294 293 294 293 291 292 292 293 293 293 293 292 292 293 293
299 299 295 292 292 296 293 292 296 299 300 300 301 298 298 297 296 297 297 293 296 299 296 295 295 297 296 294 293 293 293 293 292 292 292 292 292 291 292 292 292 293 293 292
294 295 290 293 296 296 298 298 299 299 299 299 298 297 296 294 290 295 294 294 297 298 293 291 296 294 294 294 294 293 292 292 293 292 292 291 292 292 292 292 292 293 292 292
293 294 292 295 296 295 297 297 297 298 298 297 297 290 286 288 286 291 293 290 291 290 290 295 294 294 294 293 292 292 292 293 292 291 291 292 292 292 293 293 293 292 292 292
293 293 295 296 296 296 297 297 297 297 296 289 292 288 290 289 284 287 291 288 288 295 293 294 294 293 292 292 292 293 293 292 291 292 292 292 292 292 292 292 292 291 292 292
Wind_Speed
2 2 3 7 8 4 4 4 4 4 3 4 3 2 3 3 4 7 5 4 3 2 2 4 3 3 2 0 2 2 1 3 3 3 7 4 4 5 4 3 3 2 3 7
4 2 1 3 6 6 7 4 4 7 3 3 2 1 4 4 3 5 3 2 3 4 2 3 2 3 2 3 2 1 1 2 3 6 6 4 4 3 3 3 2 6 3 5
7 4 2 1 3 4 5 3 2 5 5 5 6 4 2 3 5 4 5 3 5 4 5 5 2 3 5 7 3 1 2 2 5 5 5 4 6 4 3 5 3 4 11 17
8 6 4 3 3 4 3 3 2 2 1 4 4 3 2 4 2 3 6 5 4 3 2 2 2 2 5 4 3 3 3 2 3 5 7 7 13 12 16 7 10 6 10 11
8 6 5 5 4 4 3 3 5 4 4 3 3 4 1 5 2 2 2 6 1 4 4 4 3 3 2 4 2 3 2 3 3 4 7 9 15 13 11 12 9 8 9 9
10 7 6 6 6 7 2 5 7 4 2 3 4 2 1 3 7 4 6 11 4 2 3 5 5 7 7 7 5 3 2 4 1 5 5 9 6 7 4 4 5 5 5 5
11 9 7 7 7 8 5 9 8 3 2 2 3 1 3 3 2 7 5 6 4 3 4 2 5 9 11 9 9 13 5 4 2 3 3 2 8 3 6 9 9 6 4 3
13 11 9 8 7 7 7 9 5 3 1 1 1 3 4 5 5 3 3 2 2 7 2 4 6 5 7 3 5 1 6 5 3 3 4 6 10 10 2 4 6 5 5 5
15 13 11 9 8 8 7 7 6 3 7 5 3 3 3 3 2 3 2 6 7 3 5 4 4 3 4 4 3 6 6 5 3 2 4 5 8 3 2 3 7 8 3 10
16 15 13 11 10 10 9 8 8 6 4 5 7 4 4 5 4 3 2 4 2 1 2 2 3 4 3 3 3 3 2 1 4 3 7 8 10 11 3 4 5 10 13 21
18 16 14 13 11 10 10 9 9 9 4 6 9 9 8 7 6 4 6 3 1 3 2 3 3 3 5 1 4 5 5 3 5 2 3 8 6 1 5 10 25 17 21 11
19 18 16 13 12 11 10 9 9 9 6 4 13 14 12 11 9 6 13 4 5 9 3 2 2 3 1 4 4 3 4 8 4 9 6 5 11 13 28 19 21 16 8 8
22 20 18 15 13 12 11 9 8 7 7 11 16 17 14 14 11 13 9 9 10 7 10 9 3 4 3 4 5 3 4 9 4 5 7 24 22 32 36 33 14 13 9 2
22 20 18 16 14 13 12 11 9 8 2 3 7 10 11 10 12 16 19 20 18 17 14 9 3 3 13 4 5 7 9 4 5 10 22 28 30 18 21 17 11 2 4 4
26 24 21 19 17 15 14 14 13 11 9 2 7 11 13 15 14 17 19 21 23 23 8 5 3 6 4 5 3 4 13 7 6 10 25 23 27 19 9 10 4 5 12 15
29 30 26 23 21 18 15 9 20 20 18 5 2 11 19 22 21 21 17 17 18 17 8 5 7 15 10 4 4 10 22 21 27 27 33 24 19 2 5 11 10 15 18 17
35 29 27 27 24 22 22 6 5 11 20 4 5 5 6 13 18 21 20 22 18 13 8 8 18 19 10 2 10 20 25 29 29 27 18 4 2 3 5 14 15 16 19 20
29 29 25 22 19 22 23 26 15 13 17 7 3 2 3 3 3 4 6 4 6 9 6 4 5 4 8 4 11 18 14 13 15 8 4 5 8 7 11 16 21 23 25 26
26 23 21 21 21 12 14 16 19 21 12 4 3 3 3 3 1 1 1 2 1 3 3 3 2 1 4 4 9 21 24 14 5 14 15 10 11 11 13 23 27 25 26 26
19 19 9 6 9 7 3 5 4 7 5 5 4 4 1 7 7 1 1 1 1 2 2 3 2 2 6 17 11 10 13 14 14 12 7 13 14 18 24 26 25 25 25 26
20 6 4 17 17 6 5 3 4 3 2 2 2 8 1 4 2 2 5 1 1 2 3 2 2 2 6 17 20 20 18 15 13 11 13 17 24 28 25 25 29 29 27 26
12 9 15 11 3 3 3 1 1 2 3 4 4 5 6 3 3 2 2 1 1 4 3 1 2 2 7 9 10 14 16 15 12 14 18 21 21 22 22 26 31 28 27 27
18 5 6 3 1 1 5 6 2 2 3 6 6 2 2 3 2 3 2 2 4 3 1 3 3 8 5 6 8 10 13 13 17 22 21 21 23 23 24 30 29 30 30 31
3 4 3 3 2 2 3 3 3 4 2 5 8 4 1 2 2 2 2 2 1 2 2 5 1 7 3 8 12 13 16 19 25 24 23 25 27 29 30 30 31 28 31 33
3 3 3 3 3 3 4 3 5 4 9 8 6 4 2 2 2 1 0 1 3 4 4 2 6 7 8 9 11 16 21 22 24 27 30 32 33 33 33 33 31 30 31 27
2 3 4 4 5 2 6 5 6 9 11 6 3 3 3 3 3 2 5 5 6 4 3 2 7 9 7 15 21 24 25 24 27 28 31 32 32 32 32 33 31 30 27 30
2 2 4 10 3 7 9 9 8 12 9 2 3 3 8 3 3 2 4 4 3 6 7 5 5 10 19 22 24 23 23 28 28 30 32 33 35 34 33 34 36 36 29 28
Wind_Direction
281 348 35 53 64 129 131 70 63 42 85 61 46 105 125 87 16 62 64 81 86 94 46 44 86 133 168 279 357 45 348 140 295 264 282 281 110 135 105 118 276 242 198 265
244 272 5 66 64 115 108 79 85 37 72 111 340 343 60 75 58 33 60 68 64 62 95 94 74 139 68 39 18 84 172 357 357 353 344 0 92 156 129 87 85 216 196 264
233 238 230 149 96 106 130 109 49 47 66 88 123 114 95 102 63 68 76 100 81 67 43 23 100 48 12 17 341 99 87 137 170 208 244 252 292 241 250 177 182 233 242 275
228 232 228 204 162 137 115 75 90 105 304 12 101 88 118 121 112 80 46 38 41 124 98 42 69 19 343 341 65 80 90 248 238 246 261 269 273 280 288 245 234 225 273 277
225 228 220 208 191 166 164 127 143 114 90 100 92 8 129 154 102 92 45 122 111 93 142 171 205 178 210 241 8 86 18 274 317 290 272 271 279 271 253 269 282 250 258 276
215 217 217 215 202 190 147 134 133 149 4 74 81 233 188 148 124 43 151 151 114 80 195 198 247 242 238 241 185 180 191 146 132 270 354 318 306 245 211 239 234 216 251 259
206 204 205 210 208 206 214 164 152 130 258 100 159 147 128 134 143 146 154 150 128 173 164 212 265 260 270 267 248 207 157 124 152 266 8 236 251 256 212 211 256 231 259 261
203 199 197 197 198 193 188 176 161 125 103 157 182 144 116 108 100 86 136 136 188 162 141 41 9 343 8 338 44 136 165 136 180 216 211 296 296 280 189 197 267 183 196 276
201 198 193 190 193 194 194 192 194 154 128 246 137 143 149 154 127 28 93 123 155 182 80 76 151 236 247 305 310 86 69 68 131 170 239 251 236 251 290 85 271 206 221 289
204 200 194 191 191 194 200 199 195 192 161 175 182 179 175 161 136 133 159 176 193 138 107 124 157 236 198 240 199 239 18 332 211 219 248 283 251 258 197 96 248 218 291 299
204 205 202 199 194 192 198 202 202 204 192 193 211 200 177 158 168 139 157 86 235 78 105 135 214 162 224 227 229 196 184 195 219 145 211 276 204 178 154 242 295 288 303 297
204 205 206 208 208 203 200 202 205 210 217 226 222 232 230 226 216 174 183 210 173 196 103 206 133 220 153 190 253 154 238 209 208 189 216 249 209 258 299 302 301 304 291 300
209 210 212 214 216 216 218 217 216 223 254 264 250 244 239 239 241 232 209 230 228 218 222 173 188 217 132 205 232 226 293 262 229 350 256 267 276 293 302 300 297 312 329 29
215 214 213 217 223 225 226 228 225 225 237 275 263 250 224 230 246 252 249 256 252 249 241 213 174 189 201 203 244 204 216 215 239 261 274 279 284 287 307 282 298 186 193 5
217 218 224 223 222 227 235 240 240 235 219 250 281 274 265 240 262 258 243 245 247 246 222 191 210 212 193 215 170 204 221 218 251 260 270 275 285 304 250 205 177 31 355 331
219 222 223 224 226 227 233 244 247 248 243 261 286 247 259 259 250 238 228 232 236 239 247 227 225 227 213 226 221 219 253 268 260 266 286 287 308 110 115 98 11 341 321 318
217 219 220 223 224 224 215 204 194 210 216 229 270 256 251 261 251 246 250 252 249 237 247 223 251 246 219 230 272 276 287 282 285 294 292 324 114 79 6 359 344 329 318 307
214 211 211 212 211 218 225 229 225 217 192 210 225 275 270 239 215 187 206 225 217 217 231 222 230 224 211 245 267 284 302 319 315 300 301 140 100 56 6 349 338 330 319 314
196 197 203 201 206 203 217 215 217 199 190 213 183 162 216 199 231 106 206 250 308 264 253 246 234 205 226 251 301 308 311 304 192 140 133 119 54 27 354 341 331 318 311 309
185 181 167 155 158 186 207 198 200 213 216 209 188 196 235 185 192 210 16 335 268 267 257 298 247 261 348 1 10 75 89 117 131 107 46 12 358 340 332 324 322 319 314 310
157 152 100 133 137 126 157 163 179 194 262 228 194 203 133 197 152 174 203 187 186 261 272 254 275 311 18 68 79 77 75 63 51 34 354 335 327 317 314 316 324 323 318 314
164 171 129 133 151 124 126 143 89 168 226 200 182 198 199 165 173 159 174 185 189 249 339 276 283 213 105 60 46 37 22 7 346 338 328 324 319 312 308 311 316 317 312 310
125 119 125 149 103 112 172 183 214 218 196 185 173 125 130 134 157 101 108 200 233 312 227 231 221 136 102 64 20 351 344 336 331 328 325 320 316 313 309 312 317 320 315 316
116 137 119 151 233 233 188 174 179 198 181 164 171 111 106 88 71 89 201 254 263 251 228 232 207 128 83 348 346 339 330 321 322 321 320 320 323 321 317 316 319 317 316 315
119 131 160 183 146 160 157 156 165 158 157 142 118 100 116 51 74 236 25 332 251 228 232 225 126 356 330 328 327 321 324 324 324 328 326 324 323 320 316 314 316 316 315 308
104 109 99 135 156 187 181 189 184 173 163 139 136 107 61 259 140 114 219 155 223 249 202 117 318 314 311 322 328 327 324 323 323 323 324 322 322 321 318 315 316 318 315 313
110 119 154 182 182 197 187 189 184 178 172 164 119 122 212 108 57 266 189 208 223 122 331 335 331 311 318 324 320 320 320 323 319 324 325 323 323 320 316 315 314 319 314 310